User: anonymous   Login
Location: Caltech
(34.1382°N, 118.1253°W)
Time: 17:48:25
(UTC-07:00)
Language:

JAS-1B - Orbit

View from above orbital plane
View from above orbital plane
View from above satellite
View from above satellite

Ground track
Ground track

The orbit data is extracted from the following two-line orbital elements,

1 20480U 90013C   15109.48940244  .00000025  00000-0  12789-3 0  9995
2 20480 099.0734 020.5159 0540741 020.4446 029.2851 12.83404657180423
Epoch (UTC): 19 April 2015 11:44:44
Eccentricity: 0.0540741
inclination: 99.0734°
perigee height: 911 km
apogee height: 1744 km
right ascension of ascending node: 20.5159°
argument of perigee: 20.4446°
revolutions per day: 12.83404657
mean anomaly at epoch: 29.2851°
orbit number at epoch: 18042

The dashed part of the orbit path shows where the satellite is in the earth's shadow,  

DLR